Погода в Большой Бремболе

Россия / Ярославская область     56°44′40″N   38°54′47″E
темп.,
°C
ветер,
м/с
пор.,
м/с
влажн.,
%
обл.,
%
осадки,
мм/ч
давл.,
гПа
погр.,
м
14 апреля, ср
ср1400:00+11ююв414675 0.0 1022249
03:00+10ю4146658 0.0 1022292
06:00+8ю411726 0.0 1021194
09:00+13ю5106190 0.0 1020351
12:00+17ю5853100 0.0 1019953
15:00+19ю5841100 0.0 10181909
18:00+16ю374965 0.0 1018174
21:00+12ююз345921 0.0 101948
15 апреля, чт
чт1500:00+10ююз336441 0.0 101825
03:00+8зюз116922 0.0 101810
06:00+8ссв1273100 0.0 101914
09:00+11ссв4583100 0.0 1019304
12:00+13ссв567289 0.0 1019755
15:00+10ссв7879100 0.0 1021653
18:00+7св71283100 0.0 1022550
21:00+6св71487100 0.0 1023513
16 апреля, пт
пт1600:00+5св71486100 0.0 1023576
03:00+4всв71483100 0.0 1024570
06:00+4всв61385100 0.0 1025570
09:00+5всв71271100 0.0 1025607
12:00+10всв795972 0.0 1026873
15:00+12всв785295 0.0 10261100
18:00+10всв61050100 0.0 1026850
21:00+7всв5135599 0.0 1028399
17 апреля, сб
сб1700:00+5всв5136293 0.0 1028375
03:00+3всв5127074 0.0 1030282
06:00+2всв4127312 0.0 1031280
09:00+7всв6105127 0.0 1032671
12:00+10всв68375 0.0 10311211
15:00+12всв68355 0.0 10311558
18:00+10всв58445 0.0 1031693
21:00+6св38645 0.0 1031136
18 апреля, вс
вс1800:00+4всв38745 0.0 1032167
03:00+3всв37815 0.0 1033129
06:00+2всв37855 0.0 1033166
09:00+7в47605 0.0 1033529
12:00+11в56465 0.0 10331446
15:00+12в56405 0.0 10311678
18:00+11в47465 0.0 1031595
21:00+7в37645 0.0 1032122